Toronto Pearson, Ontario

4:34 AM EST on December 11, 2019 (GMT -0500)
Toronto-Pearson International

Weather History for CYYZ - May, 2019

Change the Weather History Date:

Friday, May 17, 2019

  Actual Average Record
Temperature  
Mean Temperature 58 °F -  
Max Temperature 65 °F 70 °F 86 °F (2017)
Min Temperature 50 °F 48 °F 35 °F (2014)
Degree Days  
Heating Degree Days 8    
Growing Degree Days 8 (Base 50)    
Moisture  
Dew Point 46 °F    
Average Humidity 67    
Maximum Humidity 94    
Minimum Humidity 33    
Precipitation  
Precipitation 0.00 in 0.09 in - ()
Sea Level Pressure  
Sea Level Pressure 29.77 in    
Wind  
Wind Speed 7 mph ()    
Max Wind Speed 18 mph    
Max Gust Speed 23 mph    
Visibility 14.9 miles    
Events      
Averages and records for this station are not official NWS values.
T = Trace of Precipitation, MM = Missing Value Source: Averaged Metar Reports

Daily Weather History Graph

Daily Weather History Graph

Search for Another Location

Airport or City:

Astronomy

May. 17, 2019 Rise Set
Actual Time 5:51 AM EDT 8:38 PM EDT
Civil Twilight 5:18 AM EDT 9:12 PM EDT
Nautical Twilight 4:36 AM EDT 9:54 PM EDT
Astronomical Twilight 3:47 AM EDT 10:43 PM EDT
Moon 7:20 PM EDT (5/17) 5:27 AM EDT (5/17)
Length of Visible Light 15h 54m
Length of Day
14h 47m
Waxing Gibbous, 98% of the Moon is Illuminated
May 17
Waxing Gibbous
May 18
Full
May 26
Last Quarter
Jun 3
New
Jun 10
First Quarter

Hourly Weather History & Observations

Time (EDT) Temp. Dew Point Humidity Pressure Visibility Wind Dir Wind Speed Gust Speed Precip Events Conditions
12:00 AM 51.8 °F 46.4 °F 82% 29.69 in 15.0 mi East 8.1 mph - N/A   Mostly Cloudy
1:00 AM 53.6 °F 48.2 °F 82% 29.68 in 15.0 mi Calm Calm - N/A   Scattered Clouds
2:00 AM 52 °F 48 °F 83% 29.66 in 15 mi South 2.3 mph - -   Scattered Clouds
2:00 AM 51.8 °F 48.2 °F 88% 29.66 in 15.0 mi Calm Calm - N/A   Scattered Clouds
3:00 AM 51.8 °F 48.2 °F 88% 29.66 in 15.0 mi SSE 4.6 mph - N/A   Partly Cloudy
4:00 AM 51.8 °F 48.2 °F 88% 29.68 in 15.0 mi East 8.1 mph - N/A   Mostly Cloudy
5:00 AM 54 °F 50 °F 82% 29.67 in 15 mi NW 9.2 mph - -  
5:00 AM 53.6 °F 50.0 °F 88% 29.67 in 15.0 mi NNW 9.2 mph - N/A   Mostly Cloudy
6:00 AM 51.8 °F 50.0 °F 94% 29.68 in 12.0 mi Variable 5.8 mph - N/A   Mostly Cloudy
7:00 AM 53.6 °F 50.0 °F 88% 29.70 in 15.0 mi North 5.8 mph - N/A   Mostly Cloudy
8:00 AM 56 °F 47 °F 64% 29.73 in 15 mi NW 10.4 mph - -   Mostly Cloudy
8:00 AM 55.4 °F 48.2 °F 77% 29.72 in 15.0 mi NW 12.7 mph - N/A   Mostly Cloudy
9:00 AM 55.4 °F 46.4 °F 72% 29.74 in 15.0 mi NW 13.8 mph - N/A   Mostly Cloudy
10:00 AM 57.2 °F 48.2 °F 72% 29.76 in 15.0 mi NNE 5.8 mph 20.7 mph N/A   Partly Cloudy
11:00 AM 59 °F 47 °F 55% 29.78 in 15 mi NW 13.8 mph - -  
11:00 AM 59.0 °F 46.4 °F 63% 29.78 in 15.0 mi NW 15.0 mph 23.0 mph N/A   Partly Cloudy
12:00 PM 59.0 °F 46.4 °F 63% 29.79 in 15.0 mi North 6.9 mph 19.6 mph N/A   Partly Cloudy
1:00 PM 60.8 °F 46.4 °F 59% 29.80 in 15.0 mi NNE 9.2 mph 17.3 mph N/A   Partly Cloudy
2:00 PM 63 °F 47 °F 46% 29.80 in 15 mi NNE 8.1 mph - -   Scattered Clouds
2:00 PM 62.6 °F 48.2 °F 59% 29.80 in 15.0 mi North 5.8 mph 17.3 mph N/A   Partly Cloudy
3:00 PM 62.6 °F 46.4 °F 55% 29.82 in 15.0 mi NE 15.0 mph - N/A   Mostly Cloudy
4:00 PM 64.4 °F 44.6 °F 49% 29.83 in 15.0 mi NNE 8.1 mph 20.7 mph N/A   Partly Cloudy
5:00 PM 65 °F 43 °F 33% 29.83 in 15 mi NNE 6.9 mph - -  
5:00 PM 64.4 °F 42.8 °F 45% 29.83 in 15.0 mi NE 8.1 mph - N/A   Scattered Clouds
6:00 PM 62.6 °F 46.4 °F 55% 29.86 in 15.0 mi NE 18.4 mph - N/A   Mostly Cloudy
7:00 PM 60.8 °F 44.6 °F 55% 29.88 in 15.0 mi NNE 10.4 mph - N/A   Mostly Cloudy
8:00 PM 57.2 °F 41.0 °F 55% 29.90 in 15.0 mi NE 12.7 mph 19.6 mph N/A   Mostly Cloudy
9:00 PM 55.4 °F 37.4 °F 51% 29.92 in 15.0 mi NNE 11.5 mph 17.3 mph N/A   Mostly Cloudy
10:00 PM 53.6 °F 37.4 °F 54% 29.94 in 15.0 mi NE 9.2 mph - N/A   Mostly Cloudy
11:00 PM 51.8 °F 39.2 °F 62% 29.95 in 15.0 mi NE 10.4 mph - N/A   Mostly Cloudy